ACA327 CYUL-CYYC

Flight info

Callsign ACA327
Flight time N/A
Altitude 34000
Route KESKA DCT BIPKO DCT IPSAK DCT OMEGI DCT RADEN DCT SPALD DCT LACTO DCT LEATS/N0458F360 DCT ILADA BIRKO6
Aircraft A321/M-SDE3FGHIRWY/LB1

Departure

Time 2026-05-05 01:09
Airport Montreal / Pierre Elliott Trudeau International Airport (CYUL)

Arrival

Time N/A
Airport Calgary International Airport (CYYC)
Time Latitude Longitude Altitude Speed Heading
2026-05-05 00:24 45.45891 -73.74439 105 ft 0 kts 177°
2026-05-05 00:56 45.45903 -73.74440 104 ft 4 kts 177°
2026-05-05 00:56 45.45930 -73.74442 104 ft 3 kts 177°
2026-05-05 00:56 45.45953 -73.74446 103 ft 4 kts 158°
2026-05-05 00:56 45.45972 -73.74466 102 ft 4 kts 109°
2026-05-05 00:57 45.45973 -73.74503 101 ft 4 kts 77°
2026-05-05 00:57 45.45969 -73.74527 101 ft 0 kts 74°
2026-05-05 01:00 45.45969 -73.74525 104 ft 2 kts 74°
2026-05-05 01:00 45.45970 -73.74523 104 ft 0 kts 74°
2026-05-05 01:00 45.45971 -73.74519 104 ft 3 kts 74°
2026-05-05 01:00 45.45984 -73.74464 103 ft 6 kts 68°
2026-05-05 01:01 45.45996 -73.74402 103 ft 9 kts 86°
2026-05-05 01:01 45.45970 -73.74315 103 ft 9 kts 104°
2026-05-05 01:01 45.45999 -73.74241 102 ft 10 kts 42°
2026-05-05 01:01 45.46082 -73.74134 103 ft 20 kts 42°
2026-05-05 01:02 45.46178 -73.74010 104 ft 18 kts 43°
2026-05-05 01:02 45.46265 -73.73894 104 ft 16 kts 42°
2026-05-05 01:02 45.46342 -73.73794 107 ft 15 kts 43°
2026-05-05 01:02 45.46435 -73.73673 108 ft 22 kts 42°
2026-05-05 01:03 45.46557 -73.73514 110 ft 24 kts 42°
2026-05-05 01:03 45.46672 -73.73363 112 ft 21 kts 44°
2026-05-05 01:03 45.46775 -73.73226 113 ft 19 kts 42°
2026-05-05 01:03 45.46870 -73.73101 114 ft 19 kts 41°
2026-05-05 01:04 45.46964 -73.72978 115 ft 20 kts 42°
2026-05-05 01:04 45.47223 -73.72637 116 ft 27 kts 43°
2026-05-05 01:04 45.47356 -73.72463 117 ft 25 kts 42°
2026-05-05 01:05 45.47479 -73.72301 119 ft 23 kts 42°
2026-05-05 01:05 45.47593 -73.72152 119 ft 21 kts 42°
2026-05-05 01:05 45.47698 -73.72015 118 ft 19 kts 42°
2026-05-05 01:05 45.47785 -73.71902 119 ft 13 kts 42°
2026-05-05 01:06 45.47805 -73.71803 121 ft 10 kts 115°
2026-05-05 01:06 45.47772 -73.71729 121 ft 8 kts 123°
2026-05-05 01:06 45.47763 -73.71713 119 ft 0 kts 128°
2026-05-05 01:07 45.47754 -73.71696 123 ft 6 kts 128°
2026-05-05 01:07 45.47715 -73.71642 124 ft 7 kts 148°
2026-05-05 01:07 45.47659 -73.71662 124 ft 7 kts 222°
2026-05-05 01:08 45.47603 -73.71734 123 ft 28 kts 221°
2026-05-05 01:08 45.47278 -73.72157 119 ft 96 kts 223°
2026-05-05 01:08 45.46650 -73.72981 113 ft 147 kts 222°
2026-05-05 01:08 45.45818 -73.74085 323 ft 169 kts 224°
2026-05-05 01:09 45.44999 -73.75270 925 ft 169 kts 224°
2026-05-05 01:09 45.44175 -73.76431 1519 ft 167 kts 223°
2026-05-05 01:09 45.43333 -73.77537 2052 ft 163 kts 223°
2026-05-05 01:09 45.42496 -73.78612 2559 ft 162 kts 224°
2026-05-05 01:10 45.41641 -73.79726 2835 ft 175 kts 225°
2026-05-05 01:10 45.40707 -73.80985 2969 ft 195 kts 226°
2026-05-05 01:10 45.39709 -73.82465 3110 ft 218 kts 238°
2026-05-05 01:10 45.39249 -73.84565 3532 ft 232 kts 269°
2026-05-05 01:11 45.39747 -73.86781 4185 ft 247 kts 301°
2026-05-05 01:11 45.40974 -73.88564 4916 ft 255 kts 311°
2026-05-05 01:11 45.42300 -73.90265 5588 ft 259 kts 312°
2026-05-05 01:11 45.43663 -73.91971 6271 ft 262 kts 313°
2026-05-05 01:12 45.45045 -73.93692 6943 ft 265 kts 313°
2026-05-05 01:12 45.46434 -73.95429 7612 ft 267 kts 313°
2026-05-05 01:12 45.47829 -73.97189 8281 ft 269 kts 312°
2026-05-05 01:12 45.49228 -73.98974 8963 ft 271 kts 312°
2026-05-05 01:13 45.50631 -74.00772 9638 ft 272 kts 312°
2026-05-05 01:13 45.52047 -74.02588 10236 ft 276 kts 312°
2026-05-05 01:13 45.53527 -74.04498 10382 ft 297 kts 312°
2026-05-05 01:13 45.55108 -74.06542 10507 ft 317 kts 313°
2026-05-05 01:14 45.56788 -74.08713 10691 ft 333 kts 313°
2026-05-05 01:14 45.58525 -74.10949 11185 ft 338 kts 313°
2026-05-05 01:14 45.60285 -74.13204 11790 ft 341 kts 313°
2026-05-05 01:14 45.61925 -74.15622 12411 ft 338 kts 303°
2026-05-05 01:15 45.63322 -74.18328 13024 ft 340 kts 301°
2026-05-05 01:15 45.64724 -74.21079 13556 ft 344 kts 301°
2026-05-05 01:15 45.66135 -74.23853 14092 ft 346 kts 302°
2026-05-05 01:15 45.67704 -74.26478 14645 ft 354 kts 315°
2026-05-05 01:16 45.69868 -74.28257 15199 ft 367 kts 335°
2026-05-05 01:16 45.72435 -74.28866 15742 ft 383 kts 355°
2026-05-05 01:16 45.75080 -74.28319 16269 ft 394 kts
2026-05-05 01:16 45.77759 -74.27446 16797 ft 395 kts
2026-05-05 01:17 45.80449 -74.27149 17294 ft 383 kts 348°
2026-05-05 01:17 45.83002 -74.27962 17789 ft 371 kts 332°
2026-05-05 01:17 45.85226 -74.29723 18234 ft 362 kts 317°
2026-05-05 01:17 45.86976 -74.32247 18654 ft 355 kts 302°
2026-05-05 01:18 45.88163 -74.35317 19049 ft 353 kts 288°
2026-05-05 01:18 45.88614 -74.37606 19317 ft 353 kts 279°
2026-05-05 01:18 45.88730 -74.41130 19718 ft 357 kts 265°
2026-05-05 01:18 45.88184 -74.44567 20116 ft 363 kts 252°
2026-05-05 01:19 45.87178 -74.47974 20538 ft 367 kts 250°
2026-05-05 01:19 45.86174 -74.51303 20943 ft 370 kts 250°
2026-05-05 01:19 45.85149 -74.54703 21326 ft 373 kts 250°
2026-05-05 01:19 45.84115 -74.58131 21719 ft 376 kts 250°
2026-05-05 01:20 45.83071 -74.61589 22101 ft 379 kts 250°
2026-05-05 01:20 45.82020 -74.65068 22492 ft 382 kts 250°
2026-05-05 01:20 45.80957 -74.68582 22884 ft 385 kts 250°
2026-05-05 01:20 45.79887 -74.72118 23243 ft 388 kts 250°
2026-05-05 01:21 45.78808 -74.75677 23567 ft 391 kts 250°
2026-05-05 01:21 45.77722 -74.79259 23921 ft 393 kts 250°
2026-05-05 01:21 45.76766 -74.82913 24257 ft 391 kts 258°
2026-05-05 01:21 45.76349 -74.86746 24604 ft 389 kts 269°
2026-05-05 01:22 45.76501 -74.90608 24941 ft 389 kts 280°
2026-05-05 01:22 45.77069 -74.94411 25278 ft 391 kts 282°
2026-05-05 01:22 45.77661 -74.98218 25622 ft 392 kts 282°
2026-05-05 01:22 45.78249 -75.02038 25967 ft 393 kts 282°
2026-05-05 01:23 45.78826 -75.05824 26288 ft 395 kts 282°
2026-05-05 01:23 45.79422 -75.09722 26620 ft 396 kts 282°
2026-05-05 01:23 45.80005 -75.13534 26925 ft 398 kts 282°
2026-05-05 01:23 45.80598 -75.17410 27246 ft 399 kts 282°
2026-05-05 01:24 45.81191 -75.21298 27576 ft 400 kts 282°
2026-05-05 01:24 45.81782 -75.25204 27909 ft 401 kts 282°
2026-05-05 01:24 45.82369 -75.29116 28224 ft 403 kts 282°
2026-05-05 01:24 45.82959 -75.33046 28558 ft 403 kts 281°
2026-05-05 01:25 45.83548 -75.36970 29009 ft 401 kts 281°
2026-05-05 01:25 45.84133 -75.40867 29474 ft 398 kts 281°
2026-05-05 01:25 45.84711 -75.44742 29870 ft 397 kts 281°
2026-05-05 01:25 45.85286 -75.48604 30254 ft 395 kts 281°
2026-05-05 01:26 45.85858 -75.52444 30620 ft 393 kts 282°
2026-05-05 01:26 45.86428 -75.56272 30998 ft 391 kts 282°
2026-05-05 01:26 45.86994 -75.60075 31371 ft 389 kts 282°
2026-05-05 01:26 45.87556 -75.63868 31747 ft 388 kts 282°
2026-05-05 01:27 45.88112 -75.67641 32124 ft 385 kts 281°
2026-05-05 01:27 45.88662 -75.71395 32491 ft 383 kts 282°
2026-05-05 01:27 45.89207 -75.75129 32864 ft 382 kts 282°
2026-05-05 01:27 45.89749 -75.78852 33224 ft 380 kts 282°
2026-05-05 01:28 45.90289 -75.82554 33557 ft 379 kts 282°
2026-05-05 01:28 45.90827 -75.86253 33625 ft 377 kts 282°
2026-05-05 01:28 45.91892 -75.93605 33636 ft 375 kts 282°
2026-05-05 01:29 45.93102 -76.00878 33621 ft 375 kts 290°
2026-05-05 01:29 45.95754 -76.07346 33627 ft 380 kts 304°
2026-05-05 01:30 45.99025 -76.13325 33618 ft 380 kts 304°
2026-05-05 01:30 46.02273 -76.19328 33614 ft 380 kts 304°
2026-05-05 01:31 46.05520 -76.25338 33613 ft 380 kts 304°
2026-05-05 01:31 46.08744 -76.31305 33607 ft 380 kts 303°
2026-05-05 01:32 46.11989 -76.37315 33588 ft 380 kts 303°
2026-05-05 01:32 46.15230 -76.43338 33588 ft 380 kts 303°
2026-05-05 01:33 46.18464 -76.49380 33599 ft 381 kts 303°
2026-05-05 01:33 46.21710 -76.55430 33601 ft 381 kts 303°
2026-05-05 01:34 46.24952 -76.61482 33599 ft 381 kts 303°
2026-05-05 01:34 46.28189 -76.67559 33591 ft 381 kts 303°
2026-05-05 01:35 46.31415 -76.73637 33604 ft 381 kts 303°
2026-05-05 01:35 46.34646 -76.79714 33592 ft 381 kts 303°
2026-05-05 01:36 46.37847 -76.85760 33591 ft 381 kts 303°
2026-05-05 01:36 46.41064 -76.91854 33583 ft 381 kts 303°
2026-05-05 01:37 46.44283 -76.97953 33611 ft 381 kts 302°
2026-05-05 01:37 46.47492 -77.04057 33615 ft 380 kts 302°
2026-05-05 01:38 46.50695 -77.10168 33596 ft 380 kts 302°
2026-05-05 01:38 46.53893 -77.16275 33586 ft 380 kts 302°
2026-05-05 01:39 46.57089 -77.22386 33578 ft 380 kts 302°
2026-05-05 01:39 46.60281 -77.28500 33576 ft 379 kts 302°
2026-05-05 01:40 46.63465 -77.34619 33571 ft 379 kts 302°
2026-05-05 01:40 46.66645 -77.40742 33559 ft 379 kts 302°
2026-05-05 01:41 46.69827 -77.46874 33579 ft 379 kts 301°
2026-05-05 01:41 46.73000 -77.53012 33573 ft 379 kts 302°
2026-05-05 01:42 46.76170 -77.59156 33551 ft 379 kts 301°
2026-05-05 01:42 46.79339 -77.65309 33547 ft 379 kts 301°
2026-05-05 01:43 46.82501 -77.71469 33570 ft 379 kts 301°
2026-05-05 01:43 46.85653 -77.77624 33564 ft 378 kts 301°
2026-05-05 01:44 46.88775 -77.83733 33555 ft 378 kts 301°
2026-05-05 01:44 46.91913 -77.89879 33546 ft 377 kts 301°
2026-05-05 01:45 46.95050 -77.96024 33537 ft 376 kts 301°
2026-05-05 01:45 46.98174 -78.02173 33556 ft 376 kts 301°
2026-05-05 01:46 47.01287 -78.08327 33560 ft 375 kts 300°
2026-05-05 01:46 47.04392 -78.14463 33554 ft 374 kts 300°
2026-05-05 01:47 47.07483 -78.20601 33547 ft 374 kts 300°
2026-05-05 01:47 47.10568 -78.26728 33538 ft 373 kts 300°
2026-05-05 01:48 47.13651 -78.32865 33528 ft 373 kts 300°
2026-05-05 01:48 47.16729 -78.39002 33540 ft 373 kts 300°
2026-05-05 01:49 47.19806 -78.45153 33529 ft 373 kts 300°
2026-05-05 01:49 47.22878 -78.51308 33568 ft 374 kts 299°
2026-05-05 01:50 47.25952 -78.57482 33542 ft 374 kts 299°
2026-05-05 01:50 47.29025 -78.63679 33532 ft 375 kts 299°
2026-05-05 01:51 47.32105 -78.69883 33524 ft 375 kts 299°
2026-05-05 01:51 47.35180 -78.76097 33546 ft 375 kts 299°
2026-05-05 01:52 47.38236 -78.82286 33544 ft 376 kts 299°
2026-05-05 01:52 47.41304 -78.88522 33542 ft 375 kts 299°
2026-05-05 01:53 47.44364 -78.94767 33542 ft 375 kts 298°
2026-05-05 01:53 47.47423 -79.01014 33542 ft 375 kts 298°
2026-05-05 01:54 47.50485 -79.07263 33558 ft 375 kts 298°
2026-05-05 01:54 47.53542 -79.13524 33554 ft 376 kts 298°
2026-05-05 01:55 47.56603 -79.19807 33539 ft 376 kts 298°
2026-05-05 01:55 47.59660 -79.26114 33530 ft 377 kts 298°
2026-05-05 01:56 47.62717 -79.32427 33530 ft 377 kts 298°